| time (UTC) | temp C | wind direction | speed KPH | gust KPH | rain 1hr cm | rain 24hr cm | rain mn cm | humidity % | barometer mb |
| 20260506214356 | 41 | 135 | 35.4 | 35.4 | 0.00 | 0.00 | 0.00 | 57 | 1010.5 |
| 20260506204410 | 42 | 225 | 40.2 | 46.7 | 0.00 | 0.00 | 0.00 | 54 | 1011.2 |
| 20260506195314 | 46 | 225 | 46.7 | 46.7 | 0.00 | 0.00 | 0.00 | 49 | 1012.2 |
| 20260506194813 | 46 | 225 | 46.7 | 46.7 | 0.00 | 0.00 | 0.00 | 49 | 1012.2 |
| 20260506194312 | 46 | 225 | 46.7 | 46.7 | 0.00 | 0.00 | 0.00 | 49 | 1012.2 |
| 20260506193809 | 46 | 225 | 46.7 | 46.7 | 0.00 | 0.00 | 0.00 | 49 | 1012.2 |
| 20260506184709 | 45 | 248 | 17.7 | 17.7 | 0.00 | 0.00 | 0.00 | 50 | 1013.2 |
| 20260506183725 | 45 | 203 | 20.9 | 20.9 | 0.00 | 0.00 | 0.00 | 50 | 1013.6 |
| 20260506181552 | 42 | 248 | 17.7 | 46.7 | 0.00 | 0.00 | 0.00 | 53 | 1013.6 |
| 20260506170432 | 42 | 158 | 11.3 | 17.7 | 0.00 | 0.00 | 0.00 | 54 | 1014.6 |
| 20260506164945 | 42 | 90 | 35.4 | 35.4 | 0.00 | 0.00 | 0.00 | 52 | 1014.6 |
| 20260506163434 | 42 | 225 | 11.3 | 11.3 | 0.00 | 0.00 | 0.00 | 52 | 1014.6 |
| 20260506162419 | 42 | 270 | 17.7 | 20.9 | 0.00 | 0.00 | 0.00 | 54 | 1014.6 |
| 20260506161914 | 42 | 113 | 0.0 | 35.4 | 0.00 | 0.00 | 0.00 | 54 | 1014.9 |
| 20260506150332 | 37 | 113 | 11.3 | 40.2 | 0.00 | 0.00 | 0.00 | 67 | 1014.9 |
| 20260506134745 | 32 | 135 | 17.7 | 35.4 | 0.00 | 0.00 | 0.00 | 78 | 1014.9 |
| 20260506133721 | 32 | 113 | 11.3 | 20.9 | 0.00 | 0.00 | 0.00 | 80 | 1015.2 |
| 20260506133236 | 32 | 113 | 17.7 | 17.7 | 0.00 | 0.00 | 0.00 | 81 | 1015.2 |
| 20260506132741 | 31 | 135 | 20.9 | 35.4 | 0.00 | 0.00 | 0.00 | 83 | 1015.2 |
| 20260506125941 | 28 | 90 | 11.3 | 20.9 | 0.00 | 0.00 | 0.00 | 91 | 1015.2 |
| 20260506125438 | 28 | 68 | 29.0 | 29.0 | 0.00 | 0.00 | 0.00 | 92 | 1014.9 |
| 20260506121903 | 27 | 113 | 20.9 | 29.0 | 0.00 | 0.00 | 0.00 | 99 | 1014.9 |
| 20260506115908 | 27 | 113 | 0.0 | 0.0 | 0.00 | 0.00 | 0.00 | 98 | 1014.9 |
| 20260506114357 | 27 | 113 | 0.0 | 0.0 | 0.00 | 0.00 | 0.00 | 98 | 1014.6 |
| 20260506101433 | 27 | 225 | 0.0 | 0.0 | 0.00 | 0.00 | 0.00 | 98 | 1014.2 |
| 20260506084404 | 28 | 113 | 17.7 | 29.0 | 0.00 | 0.00 | 0.00 | 94 | 1013.6 |
| 20260506082404 | 28 | 113 | 11.3 | 11.3 | 0.00 | 0.00 | 0.00 | 93 | 1013.6 |
| 20260506080343 | 28 | 113 | 29.0 | 29.0 | 0.00 | 0.00 | 0.00 | 94 | 1013.9 |
| 20260506071757 | 28 | 135 | 11.3 | 20.9 | 0.00 | 0.00 | 0.00 | 94 | 1014.2 |
| 20260506070505 | 28 | 180 | 17.7 | 29.0 | 0.00 | 0.00 | 0.00 | 95 | 1014.2 |
| 20260506061859 | 28 | 158 | 0.0 | 6.4 | 0.00 | 0.00 | 0.00 | 91 | 1014.6 |